Regional Weather Roundup
Issued by NWS

Home | Current Version | Previous Version | Graphics & Text | Print | Product List | Glossary Off
Versions: 1 2 3 4 5 6 7 8 9 10 11 12 13 14 15 16 17 18 19 20 21 22 23 24 25 26 27 28 29 30 31 32 33 34 35 36 37 38 39 40 41 42 43 44 45 46 47 48 49 50

867
ASUS43 KTOP 260059
RWRKS

WEATHER ROUNDUP FOR KANSAS
NATIONAL WEATHER SERVICE GOODLAND KS
700 PM CST SUN FEB 25 2018

NOTE:  "FAIR" INDICATES FEW OR NO CLOUDS BELOW 12,000 FEET WITH NO
SIGNIFICANT WEATHER AND/OR OBSTRUCTIONS TO VISIBILITY.

KSZ001>006-013>018-027>032-041>047-260200-
NORTHWEST KANSAS

CITY           SKY/WX    TMP DP  RH WIND       PRES   REMARKS
GOODLAND       CLEAR     33   0  24 CALM      29.98R
HAYS           CLEAR     43   7  22 S3        30.04R
HILL CITY      CLEAR     37   4  25 NW7       30.03R
RUSSELL        CLEAR     45  10  24 SW5       30.03R
$$

KSZ061>065-074>080-084>089-260200-
SOUTHWEST KANSAS

CITY           SKY/WX    TMP DP  RH WIND       PRES   REMARKS
DODGE CITY     CLEAR     35   5  28 NW5       30.05R
GARDEN CITY    CLEAR     40   1  19 W6        30.03R
GREAT BEND     CLEAR     39  24  55 S5        30.06R
LIBERAL        CLEAR     42   6  22 CALM      30.05R
$$

KSZ066>073-081>083-090>101-260200-
SOUTHEAST KANSAS

CITY           SKY/WX    TMP DP  RH WIND       PRES   REMARKS
CHANUTE        PTCLDY    47  31  53 E6        30.07R
COFFEYVILLE    CLEAR     47  37  68 NE8       30.05R
HUTCHINSON     CLEAR     34  28  79 CALM      30.05R
MEDICINE LODGE   N/A     44  27  51 N5        30.04R
NEWTON         CLEAR     43  28  55 N6        30.05R
PARSONS        CLEAR     43  36  76 VRB3      30.07R
WICHITA INTL   PTCLDY    46  32  58 N7        30.04R
WICHITA JABRA  CLEAR     41  31  67 N8        30.04R
WICHITA MCCONL CLEAR     46  30  53 NE6       30.03R
WINFIELD       CLEAR     45  33  63 N6        30.03R
$$

KSZ007>012-019>026-033>040-048>060-102>105-260200-
NORTHEAST KANSAS

CITY           SKY/WX    TMP DP  RH WIND       PRES   REMARKS
CONCORDIA      CLEAR     36  13  38 S8        30.04R
EMPORIA        CLOUDY    44  25  47 S6        30.05R
LAWRENCE       CLEAR     35  28  75 SE6       30.08R
MANHATTAN      CLEAR     38  19  46 SW3       30.06R
OLATHE IND     CLEAR     40  24  53 CALM      30.09R
OLATHE EXE     CLEAR     41  26  55 CALM      30.08R
SALINA         CLEAR     41  26  55 CALM      30.06R
TOPEKA BILLARD PTCLDY    41  27  57 SE6       30.06S
TOPEKA FORBES  PTCLDY    42  25  50 SE5       30.06R
$$




USA.gov is the U.S. government's official web portal to all federal, state and local government web resources and services.